Location: Dappach
(48.9767°N, 9.6998°E)
Time: 02:05:00
(UTC+00:00)

Aureole 3 - Pass Details

Date: 23 May 2024
Orbit: 378 x 1127 km, 82.5° (Epoch: 19 June)

Event Time Altitude Azimuth Distance (km) Brightness Sun altitude
Exits shadow 01:10:38 18° 275° (W) 1,011 4.4 -16.0°
Maximum altitude 01:11:08 19° 289° (WNW) 985 4.5 -16.0°
Drops below altitude 10° 01:13:24 10° 338° (NNW) 1,419 6.0 -15.8°
Sets 01:15:49 0° 357° (N) 2,323 7.6 -15.6°
